Regional Weather Roundup
Issued by NWS Albany, NY

Home | Current Version | Previous Version | Graphics & Text | Print | Product List | Glossary Off
Versions: 1 2 3 4 5 6 7 8 9 10 11 12 13 14 15 16 17 18 19 20 21 22 23 24 25 26 27

000
ASUS41 KALY 060410
RWRALY

NEW YORK STATE HOURLY WEATHER ROUNDUP
NATIONAL WEATHER SERVICE ALBANY NY
1100 PM EST MON DEC 05 2016

NOTE: "FAIR" INDICATES FEW OR NO CLOUDS BELOW 12,000 FEET WITH NO
SIGNIFICANT WEATHER AND/OR NO OBSTRUCTIONS TO VISIBILITY.

NYZ032-033-038>043-046>054-057>066-NYZ062>081-082-084-060500-
EAST


CITY           SKY/WX    TMP DP  RH WIND       PRES   REMARKS
ALBANY         MOCLDY    37  31  78 W6        30.05R WCI  32
GLENS FALLS    FOG       28  25  88 CALM      30.02S VSB 1/2
POUGHKEEPSIE   PTCLDY    35  26  69 W6        30.06R WCI  30
NEWBURGH       PTCLDY    34  28  80 W9        30.08R WCI  26
MONTGOMERY     CLEAR     30  26  85 SW3       30.06S
WHITE PLAINS   CLEAR     39  26  59 W7        30.07R WCI  34
ISLIP          MOCLDY    34  28  79 SW3       30.07S
NEW YORK CITY  CLOUDY    46  33  60 NW10      30.09S
CENTRAL PARK   CLOUDY    43  33  68 CALM      30.12R
$$

NYZ005>009-017-018-044>046-055-056-060500-
CENTRAL


CITY           SKY/WX    TMP DP  RH WIND       PRES   REMARKS
FULTON         CLOUDY    40  32  73 W9        30.07R WCI  34
SYRACUSE       CLOUDY    38  29  70 W13       30.07R WCI  30
ROME           CLOUDY    33  33 100 CALM      30.08R
ELMIRA         CLEAR     31  26  82 W6        30.08S WCI  25
BINGHAMTON     CLEAR     32  25  75 W5        30.05R WCI  27
MONTICELLO     CLEAR     32  27  80 W5        30.05R WCI  27
$$

NYZ026>034-041>043-087-060500-
NORTH


CITY           SKY/WX    TMP DP  RH WIND       PRES   REMARKS
WATERTOWN      PTCLDY    36  31  82 W6        30.05R WCI  31
FORT DRUM      NOT AVBL
OGDENSBURG     FAIR      33  32  96 W5        30.03R WCI  29
MASSENA        CLOUDY    29  28  96 CALM      30.05R
SARANAC LAKE   LGT SNOW  31  28  89 SW5       29.95S FOG     WCI  26
PLATTSBURGH    CLOUDY    31  28  89 N5        30.02R WCI  26
$$

NYZ001>004-010>016-019>021-085-060500-
WEST


CITY           SKY/WX    TMP DP  RH WIND       PRES   REMARKS
NIAGARA FALLS  PTCLDY    35  27  72 SW7       30.09R WCI  29
BUFFALO        PTCLDY    36  27  69 W5        30.09R WCI  32
DUNKIRK        CLOUDY    40  33  76 CALM      30.10S
JAMESTOWN      CLOUDY    34  28  80 CALM      30.06S
WELLSVILLE     CLOUDY    35  28  75 W6        30.07R WCI  30
ROCHESTER      CLEAR     34  28  79 W5        30.09R WCI  30
PENN YAN       CLEAR     34  25  69 S3        30.08R
$$

             KEY
       WCI = WIND CHILL INDEX
       VSB = VISIBILITY
       HX  = HEAT INDEX
$$




USA.gov is the U.S. government's official web portal to all federal, state and local government web resources and services.